Location: Newark
(22.3060°N, 114.2134°E)
Time: 04:06:24
(UTC+00:00)

Tiros 1 despin weight - Pass Details

Date: 08 August 2021
Orbit: 593 x 641 km, 48.2° (Epoch: 26 September)

Event Time Altitude Azimuth Distance (km) Brightness Sun altitude
Rises 11:28:44 0° 294° (WNW) 2,926 ? -7.2°
Reaches altitude 10° 11:31:41 10° 276° (W) 2,010 ? -7.8°
Maximum altitude 11:34:49 18° 233° (SW) 1,543 ? -8.5°
Drops below altitude 10° 11:37:55 10° 190° (S) 1,988 ? -9.2°
Sets 11:40:50 0° 171° (S) 2,882 ? -9.8°
